SHENZHOU-15

Last updated on Tue May 30 2023 00:02:07 GMT+0000 (Coordinated Universal Time)

1 54379U 22162A 23149.41725378 -.00000337 00000+0 00000+0 0 9999 2 54379 41.4730 269.9103 0004459 271.4347 156.8091 15.59379311118902
UTC large
Height (km)
Speed (km/s)
/
Latitude / Longitude
Inclination (degrees)
Orbital Period (minutes)
Azimuth
Elevation
Range (km)
Doppler Factor

Next 0 passes for location: London (51.5072 / 0.1276)

Sorry there are no passes over London.